Inquirer Daily News

Weather

Get conditions and forecasts for any City, State, ZIP code or Country:  
Trenton, NJ
on Tuesday, February 19, 2013

Tuesday
Previous Day Next Day
Daily Summary
 ActualAverageRecord
Temperature
Mean Temperature °F 35°F  
Max Temperature 47°F 43°F 68°F (1948)
Min Temperature 25°F 26°F 2°F (1903)
Degree Days
Heating Degree Days 29 30  
Month to date heating degree days 638 605  
Since 1 July heating degree days 3346 3551  
Cooling Degree Days 0 0  
Month to date cooling degree days 0 0  
Year to date cooling degree days 0 0  
Moisture
Dew Point 31°F   
Average Humidity 73    
Maximum Humidity 96    
Minimum Humidity 49    
Precipitation
Precipitation 0.19 in 0.09 in 1.60 in (1898)
Month to date precipitation 1.14 1.49  
Year to date precipitation 3.96 4.65  
Wind
Wind Speed 8 mph   
Max Wind Speed 24 mph   
Max Gust Speed 35 mph   
Visibility 8 miles   
Events Rain   

Key: T is trace of precipitation, MM is missing value
Source: NWS Daily Summary
Time(EST)TemperatureDew PointHumidity Pressure Visibility Wind DirectionWind SpeedGust SpeedPrecipitationEvents Conditions
12:53 AM 28.9°F 12.9°F 51% 30.17 in 10.0 miles SSW 6.9 mph - N/A   Clear
1:53 AM 28.0°F 12.9°F 53% 30.14 in 10.0 miles South 4.6 mph - N/A   Clear
2:53 AM 28.0°F 15.1°F 58% 30.12 in 10.0 miles South 4.6 mph - N/A   Clear
3:53 AM 28.0°F 16.0°F 61% 30.11 in 10.0 miles Calm Calm - N/A   Clear
4:53 AM 25.0°F 17.1°F 72% 30.07 in 10.0 miles SSE 4.6 mph - N/A   Clear
5:53 AM 27.0°F 19.0°F 72% 30.06 in 10.0 miles South 3.5 mph - N/A   Clear
6:53 AM 28.0°F 19.9°F 72% 30.04 in 10.0 miles South 5.8 mph - N/A   Clear
7:53 AM 32.0°F 21.9°F 66% 30.04 in 10.0 miles South 4.6 mph - N/A   Clear
8:53 AM 35.1°F 24.1°F 64% 30.00 in 10.0 miles South 5.8 mph - N/A   Clear
9:53 AM 39.9°F 25.0°F 55% 29.96 in 10.0 miles South 10.4 mph - N/A   Clear
10:53 AM 46.9°F 28.0°F 48% 29.95 in 10.0 miles SW 16.1 mph 24.2 mph N/A   Partly Cloudy
11:53 AM 43.0°F 30.9°F 62% 29.94 in 8.0 miles WSW 18.4 mph 29.9 mph 0.00 in Rain Light Rain
1:53 PM 42.1°F 37.9°F 85% 29.83 in 8.0 miles SSW 8.1 mph - 0.03 in Rain Light Rain
2:23 PM 42.8°F 39.2°F 87% 29.81 in 6.0 miles SSW 9.2 mph - 0.01 in Rain Light Rain
2:36 PM 42.8°F 39.2°F 87% 29.80 in 6.0 miles South 11.5 mph - 0.01 in Rain Light Rain
2:44 PM 42.8°F 39.2°F 87% 29.79 in 6.0 miles South 9.2 mph - 0.01 in Rain Light Rain
2:53 PM 42.1°F 39.9°F 92% 29.77 in 4.0 miles South 9.2 mph - 0.02 in Rain Light Rain
3:53 PM 43.0°F 41.0°F 93% 29.74 in 6.0 miles SW 8.1 mph - 0.02 in Rain Light Rain
4:51 PM 44.6°F 42.8°F 93% 29.73 in 5.0 miles WSW 11.5 mph - 0.03 in Rain Light Rain
4:53 PM 44.1°F 41.0°F 89% 29.73 in 5.0 miles WSW 12.7 mph - 0.03 in Rain Light Rain
5:28 PM 44.6°F 42.8°F 93% 29.72 in 4.0 miles SW 9.2 mph - 0.02 in Rain Light Rain
5:53 PM 44.1°F 42.1°F 93% 29.70 in 7.0 miles SW 11.5 mph - 0.04 in Rain Light Rain
7:39 PM 44.6°F 41.0°F 87% 29.72 in 5.0 miles WNW 11.5 mph - 0.02 in Rain Light Rain
7:53 PM 43.0°F 39.0°F 86% 29.70 in 9.0 miles WNW 11.5 mph 20.7 mph 0.02 in Rain Light Rain
8:07 PM 42.8°F 39.2°F 87% 29.71 in 10.0 miles WNW 8.1 mph - 0.00 in   Overcast
8:53 PM 42.1°F 37.0°F 82% 29.71 in 10.0 miles NW 11.5 mph 19.6 mph 0.00 in   Mostly Cloudy
9:53 PM 41.0°F 30.9°F 67% 29.73 in 10.0 miles NW 9.2 mph 23.0 mph N/A   Clear
10:53 PM 37.9°F 27.0°F 65% 29.75 in 10.0 miles NW 8.1 mph - N/A   Partly Cloudy
11:53 PM 37.0°F 24.1°F 59% 29.75 in 10.0 miles NW 9.2 mph - N/A   Clear
Astronomy
Sunrise:06:46 AM (EST) Moon Rise:12:09 PM (EST)2/19
Sunset:05:39 PM (EST) Moon Set:02:17 AM (EST)2/19
Moon Phase
Feb. 19 Feb. 25 Mar. 04 Mar. 11 Mar. 19

Copyright © 2014 The Weather Underground, Inc.